Вернуться в каталог

DELTA 1 DEB

АктивенSSO
NORAD 14471·DEBRIS·🇺🇸 United States

Запущен Jul 29, 1976 с Vandenberg Space Force Base

Loading…

Ближайшие Пролёты (ближайшие 24 часа)

TLE

СвежийSource: Space-Track

Эпоха: Sep 14, 2026, 09:26 UTC

1 14471U 76077EN  26257.39369635  .00000042  00000-0  75790-3 0  9997
2 14471 102.4653 229.3973 0130409  75.9723  77.8971 12.25634299950157

Отслеживайте DELTA 1 DEB в реальном времени с AllMySat

Download on the App Store